[[{"header":{"parameterUnit":"m.s-1","parameterCategory":2,"la1":30.2991,"la2":30.254,"lo1":-89.0895,"lo2":-89.0444,"dy":0.0017,"dx":0.0017,"nx":28,"ny":28,"refTime":"2023-10-23T09:00:00:Z","depth":"0","parameterNumber":2,"parameterNumberName":"U-component_of_CURRENTS"},"data":[0,0,0,0,0,0,0,0,0,0,0,0,0,0,0,0,0,0,0,0,0,0,0,0,0,0,0,0,0,0,0,0,0,0,0,0,0,0,0,0,0,0,0,0,0,0,0,0,0,0,0,0,0,0,0,0,0,0,0.2026,0.2025,0,0.1955,0.1955,0.1954,0.1928,0.1928,0.1928,0.1928,0.1995,0.1997,0.1998,0,0,0,0,0,0,0,0,0,0,0,0,0,0.2183,0.218,0.2027,0.2025,0.2024,0.1955,0.1955,0.1954,0.1928,0.1928,0.1928,0.1928,0.1994,0.1996,0.1999,0,0,0,0,0,0,0,0,0,0,0,0,0,0.2117,0.2179,0.2027,0.2,0.1997,0.1955,0.1955,0.1954,0.1928,0.1928,0.1928,0.1928,0.1993,0.1996,0.1999,0.2019,0,0,0.2008,0.2009,0,0,0,0,0,0,0,0,0.2121,0.2112,0.2005,0.2002,0.1998,0.1947,0.2034,0.1981,0.1928,0.1958,0.1928,0.1927,0.1989,0.1992,0.1983,0.2023,0.2025,0.2008,0.201,0.2011,0.2012,0,0,0,0,0,0,0,0.2125,0.2115,0.2002,0.2004,0.1999,0.2006,0.1996,0.2024,0.1981,0.1955,0.1952,0.1939,0.1989,0.198,0.1984,0.2026,0.2008,0.201,0.2012,0.2013,0.224,0.2245,0,0,0,0,0,0,0.2124,0.2119,0.2004,0.2,0.2056,0.2003,0.1992,0.1967,0.1977,0.1977,0.1939,0.1938,0.1975,0.1981,0.1987,0.2119,0.2011,0.2013,0.2015,0.2236,0.2241,0.2246,0,0,0,0,0,0,0.2127,0.2114,0.2007,0.2056,0.2042,0.2,0.1971,0.1965,0.1962,0.1963,0.1965,0.1942,0.1975,0.1983,0.2027,0.2117,0.2015,0.2017,0.2231,0.2238,0.2244,0.2315,0,0,0,0,0,0,0.2132,0.2115,0.2119,0.2055,0.2039,0.201,0.1971,0.1964,0.1952,0.195,0.1967,0.1972,0.1976,0.2023,0.203,0.2119,0.2019,0.2226,0.2234,0.2242,0.2307,0.2323,0.2337,0,0,0,0,0,0.2138,0.2144,0.2119,0.2106,0.2037,0.2011,0.2006,0.1977,0.1952,0.197,0.1973,0.1972,0.2082,0.2026,0.2034,0.2127,0.2222,0.2232,0.2241,0.23,0.232,0.2336,0,0,0,0,0,0,0.2227,0.2139,0.2111,0.2094,0.2065,0.2006,0.2022,0.1984,0.1995,0.2001,0.1991,0.1998,0.2094,0.2095,0.2034,0.2225,0.2168,0.2179,0.2211,0.2229,0.2243,0.223,0.2022,0,0,0,0,0,0.2242,0.2221,0.2147,0.2143,0.2128,0.2074,0.2063,0.2037,0.2023,0.2025,0.2026,0.2065,0.214,0.2164,0.2221,0.2287,0.2288,0.2369,0.2384,0.2396,0.2396,0.2481,0.2502,0.2278,0.2278,0.2278,0,0,0.2271,0.2228,0.2213,0.2161,0.2137,0.2132,0.207,0.2063,0.2079,0.2036,0.2078,0.2115,0.2173,0.227,0.2315,0.2276,0.2459,0.2408,0.2417,0.2411,0.2494,0.2515,0.2534,0.2285,0.2284,0.2283,0,0,0.2321,0.2286,0.228,0.226,0.2223,0.2196,0.2194,0.214,0.2145,0.2169,0.2184,0.2255,0.2314,0.2385,0.243,0.2559,0.2544,0.2602,0.2649,0.2732,0.275,0.2766,0.2771,0.2787,0.2597,0.2597,0.2597,0,0.2365,0.233,0.2285,0.2283,0.227,0.2226,0.2225,0.2239,0.2211,0.2223,0.2204,0.2331,0.2381,0.2519,0.2577,0.2595,0.2602,0.2565,0.2747,0.2763,0.2778,0.2779,0.2796,0.2602,0.2601,0.2601,0.26,0,0.2392,0.2379,0.2386,0.2359,0.2358,0.2354,0.2342,0.2359,0.2348,0.2342,0.2445,0.2499,0.2564,0.2631,0.264,0.2798,0.2755,0.276,0.2686,0.2804,0.2799,0.2814,0.2608,0.2607,0.2605,0.2604,0,0,0.2425,0.2402,0.2401,0.2391,0.2385,0.2373,0.2435,0.2449,0.247,0.2507,0.2544,0.2704,0.27,0.2754,0.2798,0.2878,0.2996,0.286,0.2863,0.2835,0.3124,0.3037,0.3044,0.3026,0.303,0.3033,0.3067,0,0.245,0.2449,0.2436,0.2451,0.2441,0.2439,0.2488,0.2515,0.2535,0.2573,0.2665,0.273,0.2763,0.2791,0.2892,0.297,0.3045,0.2982,0.3039,0.304,0.2926,0.3064,0.2939,0.2956,0.3082,0.3084,0.3086,0,0.2458,0.2451,0.2455,0.2456,0.2452,0.2467,0.2498,0.2532,0.2608,0.2628,0.2709,0.275,0.289,0.2891,0.3076,0.3027,0.309,0.3142,0.3144,0.3047,0.2985,0.2869,0.2978,0.2856,0.3109,0.3107,0.3106,0,0.2456,0.2459,0.2455,0.2454,0.2463,0.2472,0.2481,0.2537,0.2555,0.2646,0.2659,0.2813,0.286,0.3001,0.3102,0.3097,0.3267,0.3268,0.3247,0.3237,0.3134,0.311,0.3108,0.3416,0.3416,0.3416,0.3416,0,0.2459,0.2454,0.2445,0.2436,0.2429,0.2449,0.2454,0.249,0.2543,0.256,0.267,0.2712,0.2895,0.2996,0.311,0.3207,0.3275,0.3275,0.3268,0.3153,0.3132,0.302,0.2985,0.3417,0.3417,0.3416,0.3416,0,0.2439,0.2444,0.2423,0.2421,0.2417,0.24,0.2394,0.2404,0.2462,0.2487,0.2512,0.2643,0.2772,0.2926,0.3123,0.3178,0.3198,0.3323,0.3132,0.3103,0.2955,0.2929,0.2805,0.2743,0.3305,0.3304,0.3302,0,0.2418,0.2407,0.2382,0.2353,0.2338,0.2317,0.2306,0.2352,0.2357,0.2434,0.2445,0.2568,0.2643,0.2867,0.3028,0.319,0.3119,0.3126,0.3128,0.2945,0.2913,0.2772,0.2719,0.3007,0.3003,0.3,0.2998,0,0.2358,0.2351,0.2328,0.2267,0.2236,0.2199,0.2183,0.2182,0.2235,0.2267,0.2303,0.2366,0.2577,0.2692,0.2891,0.2986,0.293,0.3068,0.2966,0.2758,0.2522,0.2456,0.2927,0.2972,0.2974,0.2976,0.2978,0.2979,0.2291,0.225,0.2209,0.2147,0.2115,0.2057,0.2008,0.2026,0.2017,0.2044,0.2148,0.2224,0.2408,0.2685,0.274,0.2726,0.2766,0.2674,0.2678,0.2562,0.2449,0.2819,0.2806,0.2808,0.2809,0.2811,0.2812,0,0.2163,0.213,0.208,0.1989,0.1919,0.1941,0.1903,0.1863,0.1833,0.192,0.1954,0.2109,0.2205,0.2352,0.2434,0.2357,0.2273,0.2275,0.2072,0.2065,0.2475,0.2408,0.2203,0.2203,0.2203,0.2203,0.2204,0.2204,0.2084,0.1993,0.1968,0.1808,0.1757,0.1634,0.1602,0.1592,0.1635,0.1675,0.1755,0.1876,0.2011,0.2058,0.2,0.1981,0.1836,0.1718,0.1747,0.2048,0.2085,0.212,0.2048,0.1771,0.177,0.1227,0.1223,0.1219]},{"header":{"parameterUnit":"m.s-1","parameterCategory":2,"la1":30.2991,"la2":30.254,"lo1":-89.0895,"lo2":-89.0444,"dy":0.0017,"dx":0.0017,"nx":28,"ny":28,"refTime":"2023-10-23T09:00:00:Z","depth":"0","parameterNumber":3,"parameterNumberName":"V-component_of_CURRENTS"},"data":[0,0,0,0,0,0,0,0,0,0,0,0,0,0,0,0,0,0,0,0,0,0,0,0,0,0,0,0,0,0,0,0,0,0,0,0,0,0,0,0,0,0,0,0,0,0,0,0,0,0,0,0,0,0,0,0,0,0,0.0224,0.0223,0,0.0214,0.0214,0.0214,0.0176,0.0175,0.0174,0.0172,0.0223,0.0226,0.0228,0,0,0,0,0,0,0,0,0,0,0,0,0,0.0328,0.0326,0.0224,0.0223,0.0222,0.0214,0.0214,0.0215,0.0177,0.0175,0.0173,0.0172,0.0222,0.0225,0.0229,0,0,0,0,0,0,0,0,0,0,0,0,0,0.0301,0.0325,0.0224,0.0199,0.0196,0.0214,0.0214,0.0215,0.0177,0.0175,0.0173,0.0171,0.0221,0.0225,0.0229,0.0293,0,0,0.0241,0.0243,0,0,0,0,0,0,0,0,0.0303,0.0298,0.0203,0.02,0.0197,0.019,0.0269,0.0242,0.0177,0.019,0.0172,0.017,0.0216,0.022,0.0229,0.0296,0.0298,0.0241,0.0244,0.0245,0.0246,0,0,0,0,0,0,0,0.0304,0.0299,0.0225,0.0202,0.0199,0.0228,0.0222,0.0265,0.0219,0.0188,0.0184,0.0176,0.0215,0.0225,0.023,0.0298,0.0241,0.0245,0.0247,0.0248,0.0525,0.053,0,0,0,0,0,0,0.0291,0.03,0.0225,0.0224,0.0241,0.0227,0.022,0.0198,0.0217,0.0216,0.0178,0.0174,0.022,0.0225,0.0232,0.0406,0.0245,0.0249,0.0251,0.052,0.0526,0.0532,0,0,0,0,0,0,0.0293,0.0284,0.0225,0.0259,0.0253,0.0226,0.0203,0.0199,0.0211,0.0207,0.0208,0.0193,0.0218,0.0226,0.03,0.0403,0.0251,0.0254,0.0514,0.0522,0.0529,0.0692,0,0,0,0,0,0,0.0296,0.0285,0.0283,0.0257,0.025,0.0269,0.0204,0.02,0.0206,0.0202,0.0221,0.0223,0.0217,0.0295,0.0304,0.0406,0.0257,0.0508,0.0518,0.0527,0.068,0.0704,0.0724,0,0,0,0,0,0.03,0.0311,0.0282,0.0274,0.0241,0.0271,0.0273,0.025,0.0209,0.0248,0.0255,0.0223,0.0362,0.0302,0.0312,0.0417,0.0504,0.0515,0.0526,0.067,0.0699,0.0724,0,0,0,0,0,0,0.0375,0.0306,0.0275,0.0268,0.0279,0.0263,0.0292,0.0264,0.0298,0.0294,0.0275,0.0281,0.0395,0.0384,0.0317,0.0528,0.0434,0.0448,0.054,0.0568,0.0589,0.0558,0.026,0,0,0,0,0,0.0383,0.0365,0.0328,0.0336,0.0338,0.0315,0.0324,0.031,0.0323,0.0333,0.035,0.0385,0.0454,0.0485,0.054,0.0642,0.0582,0.0723,0.0745,0.0764,0.0749,0.0737,0.0755,0.0569,0.0569,0.0569,0,0,0.0417,0.0378,0.037,0.035,0.0352,0.0403,0.0319,0.035,0.0415,0.0339,0.0449,0.0465,0.0499,0.0625,0.0676,0.0624,0.0796,0.0778,0.0793,0.0768,0.0751,0.0768,0.0783,0.0577,0.0575,0.0574,0,0,0.0499,0.0443,0.0465,0.0479,0.0479,0.0478,0.0489,0.0493,0.0519,0.0611,0.059,0.0648,0.075,0.0791,0.0824,0.1,0.0916,0.1041,0.1125,0.1116,0.1129,0.114,0.1113,0.112,0.1049,0.1049,0.1049,0,0.055,0.0549,0.0493,0.0538,0.0563,0.0518,0.0588,0.0629,0.0668,0.0702,0.0675,0.0804,0.0833,0.0961,0.1031,0.1049,0.101,0.1017,0.1139,0.1148,0.1156,0.1125,0.1131,0.1058,0.1057,0.1056,0.1055,0,0.0645,0.0661,0.0691,0.0717,0.0757,0.0807,0.0837,0.0892,0.0902,0.0924,0.1037,0.1057,0.1112,0.1166,0.1155,0.126,0.1205,0.1166,0.1055,0.1183,0.1145,0.1147,0.1071,0.1068,0.1065,0.1063,0,0,0.0706,0.0744,0.0755,0.0792,0.0843,0.0883,0.1009,0.1089,0.1143,0.1202,0.1275,0.1396,0.1344,0.1376,0.1368,0.1369,0.1417,0.1298,0.1293,0.1242,0.1378,0.1328,0.1324,0.1386,0.1387,0.1388,0.1335,0,0.0798,0.0893,0.09,0.1031,0.1081,0.1099,0.1212,0.1285,0.1328,0.1398,0.1415,0.1486,0.1449,0.1459,0.1467,0.1426,0.1427,0.1433,0.1285,0.128,0.1195,0.1327,0.1318,0.1268,0.1337,0.1337,0.1337,0,0.0875,0.0923,0.1044,0.1143,0.117,0.1253,0.1364,0.1459,0.1547,0.1575,0.1614,0.1604,0.1649,0.1573,0.1545,0.1544,0.1479,0.1428,0.1424,0.1309,0.1234,0.115,0.1268,0.112,0.1339,0.1339,0.1339,0,0.0902,0.1022,0.111,0.1148,0.1264,0.1331,0.1401,0.1502,0.1577,0.1658,0.1685,0.172,0.1713,0.1658,0.1574,0.1554,0.1501,0.1456,0.1348,0.1342,0.127,0.1256,0.1195,0.1424,0.1424,0.1424,0.1424,0,0.0965,0.1039,0.1121,0.1168,0.1283,0.1358,0.1479,0.1546,0.1641,0.1725,0.1749,0.1786,0.1726,0.1692,0.1608,0.1492,0.1527,0.1376,0.1336,0.1333,0.1326,0.1136,0.1077,0.1422,0.1422,0.1423,0.1423,0,0.0978,0.1031,0.1131,0.1251,0.1289,0.1367,0.1505,0.1586,0.1665,0.1762,0.1787,0.183,0.1794,0.1725,0.1627,0.1521,0.1352,0.137,0.1364,0.1326,0.1073,0.1026,0.0955,0.0892,0.1241,0.1239,0.1238,0,0.0989,0.1036,0.1159,0.1214,0.1267,0.1381,0.1461,0.1579,0.1664,0.1785,0.1829,0.1834,0.1854,0.1705,0.1554,0.1411,0.1308,0.1261,0.123,0.1073,0.0991,0.0991,0.0943,0.1207,0.1206,0.1204,0.1204,0,0.1009,0.1044,0.1123,0.1218,0.1305,0.1416,0.1535,0.1599,0.1738,0.1814,0.1891,0.1914,0.1812,0.1679,0.1489,0.1377,0.1176,0.1229,0.108,0.0977,0.0961,0.0876,0.1211,0.1194,0.1195,0.1196,0.1196,0.1196,0.1009,0.106,0.1143,0.1241,0.1332,0.1437,0.1514,0.1628,0.1743,0.1857,0.1901,0.1938,0.1785,0.1544,0.1359,0.1024,0.1085,0.0909,0.0869,0.0886,0.0819,0.1124,0.1052,0.1052,0.1053,0.1053,0.1053,0,0.1006,0.1074,0.1163,0.1277,0.1359,0.1417,0.1557,0.1618,0.1717,0.1835,0.1902,0.1866,0.161,0.1358,0.095,0.0702,0.0653,0.058,0.0573,0.0542,0.0813,0.0801,0.0657,0.0658,0.0658,0.0658,0.0658,0.0658,0.1012,0.1087,0.1143,0.1268,0.1346,0.1442,0.1512,0.1584,0.1674,0.1759,0.1809,0.1876,0.1738,0.1026,0.0505,0.0382,0.0229,0.0246,0.0154,0.0314,0.0342,0.0368,0.0341,0.0103,0.0102,-0.0085,-0.0087,-0.0089]}],[{"header":{"parameterUnit":"m.s-1","parameterCategory":2,"la1":30.2991,"la2":30.254,"lo1":-89.0895,"lo2":-89.0444,"dy":0.0017,"dx":0.0017,"nx":28,"ny":28,"refTime":"2023-10-23T09:00:00:Z","depth":"2","parameterNumber":2,"parameterNumberName":"U-component_of_CURRENTS"},"data":[0,0,0,0,0,0,0,0,0,0,0,0,0,0,0,0,0,0,0,0,0,0,0,0,0,0,0,0,0,0,0,0,0,0,0,0,0,0,0,0,0,0,0,0,0,0,0,0,0,0,0,0,0,0,0,0,0,0,0.2154,0.2153,0,0.2094,0.2093,0.2093,0.207,0.207,0.207,0.207,0.2097,0.2097,0.2098,0,0,0,0,0,0,0,0,0,0,0,0,0,0.2221,0.222,0.2154,0.2153,0.2152,0.2094,0.2093,0.2093,0.207,0.207,0.207,0.207,0.2096,0.2097,0.2098,0,0,0,0,0,0,0,0,0,0,0,0,0,0.2182,0.222,0.2154,0.2132,0.2129,0.2094,0.2093,0.2093,0.207,0.207,0.207,0.207,0.2096,0.2097,0.2098,0.2108,0,0,0.2102,0.2103,0,0,0,0,0,0,0,0,0.2184,0.218,0.2136,0.2133,0.213,0.2087,0.2126,0.2101,0.207,0.2095,0.207,0.207,0.21,0.2101,0.2092,0.2109,0.211,0.2102,0.2103,0.2103,0.2104,0,0,0,0,0,0,0,0.2187,0.2182,0.2133,0.2135,0.2131,0.2114,0.2109,0.2121,0.2103,0.2093,0.2091,0.2079,0.2099,0.2091,0.2093,0.2111,0.2102,0.2103,0.2104,0.2104,0.219,0.2191,0,0,0,0,0,0,0.219,0.2185,0.2135,0.2131,0.2154,0.2113,0.2108,0.2103,0.2101,0.2098,0.208,0.2079,0.2089,0.2092,0.2094,0.2157,0.2103,0.2104,0.2105,0.2188,0.219,0.2192,0,0,0,0,0,0,0.2192,0.2187,0.2137,0.2154,0.2146,0.2112,0.2107,0.2102,0.2091,0.2089,0.2089,0.2074,0.2089,0.2092,0.2119,0.2157,0.2105,0.2106,0.2186,0.2189,0.2191,0.2252,0,0,0,0,0,0,0.2195,0.2188,0.2196,0.2154,0.2145,0.2144,0.2107,0.2101,0.2083,0.2082,0.2084,0.2086,0.2089,0.2117,0.212,0.2157,0.2107,0.2184,0.2187,0.219,0.2248,0.2256,0.2263,0,0,0,0,0,0.2197,0.2202,0.2197,0.2191,0.2154,0.2145,0.214,0.2116,0.2083,0.2101,0.2094,0.2086,0.2138,0.2119,0.2122,0.2161,0.2183,0.2186,0.219,0.2244,0.2254,0.2262,0,0,0,0,0,0,0.2216,0.2199,0.2193,0.2188,0.2182,0.214,0.2148,0.2116,0.2118,0.2116,0.2101,0.2105,0.214,0.2142,0.2121,0.2194,0.2162,0.2166,0.2202,0.2211,0.2219,0.22,0.2108,0,0,0,0,0,0.2228,0.2236,0.2216,0.2211,0.2218,0.2181,0.2172,0.2155,0.2141,0.2139,0.2131,0.2136,0.2156,0.2175,0.2187,0.2228,0.2207,0.2257,0.2265,0.2271,0.2259,0.2254,0.226,0.2203,0.2203,0.2203,0,0,0.222,0.222,0.2215,0.2218,0.2211,0.2201,0.2178,0.2173,0.2161,0.2145,0.214,0.2156,0.2169,0.2214,0.2232,0.2223,0.2282,0.2276,0.2281,0.2265,0.2258,0.2264,0.2268,0.2205,0.2205,0.2205,0,0,0.2199,0.2228,0.2222,0.2233,0.2234,0.2226,0.2224,0.2198,0.2201,0.2212,0.2191,0.2232,0.225,0.2274,0.2288,0.2345,0.2311,0.235,0.2387,0.2383,0.2387,0.239,0.2388,0.2391,0.2366,0.2366,0.2367,0,0.2184,0.2184,0.2219,0.222,0.2222,0.2232,0.2219,0.2228,0.2206,0.2211,0.2228,0.2255,0.2284,0.2322,0.2355,0.2364,0.2341,0.2352,0.2391,0.2394,0.2396,0.2393,0.2394,0.237,0.2369,0.2369,0.2369,0,0.2148,0.2164,0.2171,0.2181,0.2196,0.2201,0.2218,0.2232,0.2244,0.2241,0.2289,0.2339,0.236,0.239,0.2398,0.2432,0.2404,0.239,0.2364,0.2405,0.24,0.24,0.2375,0.2373,0.2372,0.2372,0,0,0.2081,0.213,0.2138,0.2149,0.2183,0.2188,0.2207,0.2225,0.2229,0.2275,0.2285,0.2373,0.2401,0.2419,0.2445,0.2463,0.2493,0.2438,0.2436,0.2428,0.2471,0.2403,0.2397,0.2469,0.2469,0.2469,0.2467,0,0.2043,0.2046,0.2081,0.2088,0.2098,0.2143,0.216,0.2186,0.2229,0.2252,0.2334,0.2372,0.2413,0.245,0.2475,0.2471,0.2493,0.2494,0.2438,0.2436,0.2364,0.2395,0.218,0.2153,0.2468,0.2468,0.2468,0,0.2003,0.202,0.202,0.2068,0.2078,0.2085,0.2136,0.2153,0.2207,0.2246,0.2307,0.235,0.2417,0.2445,0.2478,0.2465,0.2477,0.248,0.2479,0.2387,0.2369,0.216,0.2142,0.2468,0.2468,0.2468,0.2468,0,0.1962,0.1988,0.1996,0.2009,0.2052,0.2071,0.21,0.2151,0.2184,0.2248,0.2281,0.2343,0.2397,0.2412,0.2463,0.2459,0.2467,0.2465,0.2416,0.2411,0.2202,0.2178,0.2478,0.2478,0.2478,0.2478,0.2478,0,0.1924,0.194,0.1985,0.1993,0.2018,0.2057,0.2092,0.2129,0.2184,0.2222,0.2288,0.2333,0.2386,0.2412,0.2438,0.2428,0.2459,0.2414,0.2402,0.2221,0.22,0.2446,0.2442,0.2478,0.2478,0.2478,0.2478,0,0.1896,0.1918,0.1938,0.1983,0.2004,0.2031,0.2099,0.2122,0.2178,0.2227,0.2256,0.2322,0.2368,0.2409,0.2433,0.2397,0.2397,0.2389,0.2178,0.214,0.2348,0.2347,0.2317,0.2314,0.2312,0.231,0.2309,0,0.1885,0.189,0.1938,0.1957,0.1987,0.2033,0.2064,0.2124,0.2151,0.2225,0.2243,0.2308,0.233,0.2329,0.2267,0.2255,0.2388,0.2067,0.2033,0.2338,0.2329,0.2333,0.2335,0.179,0.1785,0.178,0.1776,0,0.1871,0.1892,0.1907,0.1947,0.1983,0.2014,0.2063,0.2077,0.2142,0.2175,0.2216,0.223,0.2203,0.2069,0.2032,0.2008,0.2045,0.1974,0.2325,0.1872,0.1843,0.1835,0.1854,0.1735,0.1739,0.1742,0.1745,0.1746,0.187,0.188,0.1903,0.1944,0.1975,0.1992,0.2,0.2024,0.2049,0.1999,0.2069,0.1963,0.1928,0.1729,0.1695,0.1658,0.1805,0.1735,0.1748,0.1767,0.1713,0.1682,0.1536,0.1538,0.1541,0.1543,0.1545,0,0.1865,0.1882,0.1904,0.193,0.1944,0.1984,0.1998,0.1944,0.1934,0.1809,0.1759,0.1502,0.138,0.1412,0.1254,0.1239,0.1213,0.1244,0.1203,0.1243,0.1279,0.1201,0.0887,0.0886,0.0884,0.0883,0,0,0.186,0.1869,0.188,0.1899,0.1929,0.1929,0.193,0.1819,0.1703,0.1437,0.1277,0.1177,0.1274,0.1018,0.1012,0.0939,0.1082,0.0895,0.1412,0.1399,0.1433,0.1543,0.1464,0,0,0,0,0]},{"header":{"parameterUnit":"m.s-1","parameterCategory":2,"la1":30.2991,"la2":30.254,"lo1":-89.0895,"lo2":-89.0444,"dy":0.0017,"dx":0.0017,"nx":28,"ny":28,"refTime":"2023-10-23T09:00:00:Z","depth":"2","parameterNumber":3,"parameterNumberName":"V-component_of_CURRENTS"},"data":[0,0,0,0,0,0,0,0,0,0,0,0,0,0,0,0,0,0,0,0,0,0,0,0,0,0,0,0,0,0,0,0,0,0,0,0,0,0,0,0,0,0,0,0,0,0,0,0,0,0,0,0,0,0,0,0,0,0,-0.0096,-0.0095,0,-0.0075,-0.0075,-0.0075,-0.009,-0.009,-0.0091,-0.0091,-0.0222,-0.0225,-0.0228,0,0,0,0,0,0,0,0,0,0,0,0,0,-0.019,-0.0188,-0.0096,-0.0095,-0.0095,-0.0075,-0.0075,-0.0075,-0.009,-0.009,-0.0091,-0.0091,-0.0221,-0.0225,-0.0229,0,0,0,0,0,0,0,0,0,0,0,0,0,-0.016,-0.0187,-0.0096,-0.0097,-0.0096,-0.0075,-0.0075,-0.0075,-0.009,-0.009,-0.0091,-0.0091,-0.022,-0.0224,-0.0229,-0.0249,0,0,-0.0244,-0.0246,0,0,0,0,0,0,0,0,-0.0162,-0.0158,-0.0097,-0.0097,-0.0096,-0.0082,-0.0156,-0.0139,-0.009,-0.0097,-0.0091,-0.0092,-0.0187,-0.0194,-0.0192,-0.0255,-0.0261,-0.0244,-0.0247,-0.0249,-0.0251,0,0,0,0,0,0,0,-0.0164,-0.0159,-0.0091,-0.0097,-0.0096,-0.0112,-0.0108,-0.0153,-0.0145,-0.0096,-0.0096,-0.0087,-0.0188,-0.0188,-0.0196,-0.0263,-0.0244,-0.0248,-0.0251,-0.0253,-0.0407,-0.0408,0,0,0,0,0,0,-0.0156,-0.016,-0.0092,-0.009,-0.0127,-0.0109,-0.0106,-0.0089,-0.0141,-0.0147,-0.0087,-0.0088,-0.0179,-0.019,-0.0201,-0.0282,-0.0249,-0.0254,-0.0256,-0.0406,-0.0407,-0.0408,0,0,0,0,0,0,-0.0158,-0.0149,-0.0093,-0.0123,-0.0116,-0.0107,-0.0089,-0.0089,-0.0083,-0.0132,-0.0142,-0.008,-0.018,-0.0194,-0.0231,-0.0285,-0.0256,-0.026,-0.0404,-0.0406,-0.0408,-0.0411,0,0,0,0,0,0,-0.016,-0.015,-0.0131,-0.0121,-0.0114,-0.0097,-0.0088,-0.0088,-0.0075,-0.0076,-0.013,-0.0142,-0.0181,-0.0223,-0.0236,-0.0292,-0.0264,-0.0403,-0.0405,-0.0407,-0.0409,-0.0412,-0.0415,0,0,0,0,0,-0.0164,-0.0156,-0.013,-0.0122,-0.0089,-0.0097,-0.0096,-0.0093,-0.0074,-0.0087,-0.0102,-0.014,-0.0248,-0.0227,-0.0241,-0.03,-0.0402,-0.0404,-0.0407,-0.0408,-0.0412,-0.0415,0,0,0,0,0,0,-0.0215,-0.0155,-0.0128,-0.0107,-0.0101,-0.0098,-0.0098,-0.0085,-0.0101,-0.0097,-0.0137,-0.0152,-0.0208,-0.0244,-0.0219,-0.0351,-0.034,-0.0345,-0.0335,-0.034,-0.0343,-0.0313,-0.0268,0,0,0,0,0,-0.0204,-0.0173,-0.0138,-0.013,-0.0113,-0.0096,-0.0091,-0.0088,-0.0098,-0.0103,-0.0139,-0.0183,-0.0231,-0.0272,-0.0315,-0.0379,-0.0401,-0.0432,-0.0435,-0.0437,-0.0423,-0.0483,-0.049,-0.0417,-0.0417,-0.0417,0,0,-0.023,-0.0189,-0.0177,-0.0136,-0.0122,-0.0134,-0.0097,-0.0094,-0.0125,-0.0119,-0.0173,-0.0184,-0.0242,-0.0312,-0.0346,-0.0353,-0.0474,-0.0441,-0.0442,-0.0426,-0.0487,-0.0494,-0.05,-0.0419,-0.0419,-0.0418,0,0,-0.0288,-0.0217,-0.0216,-0.0201,-0.0167,-0.0155,-0.015,-0.0138,-0.0147,-0.0176,-0.0188,-0.0205,-0.0295,-0.0338,-0.0373,-0.0416,-0.0473,-0.0461,-0.0475,-0.0534,-0.054,-0.0546,-0.0597,-0.0607,-0.0482,-0.0482,-0.0482,0,-0.0327,-0.0299,-0.0229,-0.0232,-0.0223,-0.0167,-0.0189,-0.0198,-0.0211,-0.022,-0.0203,-0.0269,-0.0305,-0.0384,-0.0398,-0.0424,-0.0466,-0.0456,-0.0537,-0.0543,-0.0549,-0.0599,-0.061,-0.0482,-0.0482,-0.0482,-0.0482,0,-0.0385,-0.0361,-0.0362,-0.0334,-0.0326,-0.0329,-0.0312,-0.0315,-0.0293,-0.0301,-0.0331,-0.0339,-0.0372,-0.0408,-0.0415,-0.0491,-0.051,-0.0517,-0.0523,-0.0556,-0.0608,-0.0619,-0.0483,-0.0483,-0.0483,-0.0483,0,0,-0.0478,-0.0414,-0.0416,-0.0392,-0.0364,-0.0358,-0.0397,-0.0404,-0.0409,-0.0414,-0.0433,-0.0474,-0.0429,-0.046,-0.0471,-0.0521,-0.0588,-0.0539,-0.0542,-0.0579,-0.0729,-0.0536,-0.053,-0.0624,-0.0626,-0.0627,-0.0753,0,-0.0545,-0.0548,-0.0512,-0.0528,-0.0509,-0.0466,-0.0499,-0.05,-0.049,-0.0501,-0.0489,-0.0492,-0.0474,-0.0451,-0.0506,-0.0559,-0.0617,-0.0553,-0.0698,-0.0702,-0.0519,-0.0535,-0.0538,-0.0631,-0.0764,-0.0766,-0.0768,0,-0.0598,-0.0581,-0.0599,-0.0552,-0.0543,-0.056,-0.0536,-0.0559,-0.0568,-0.0553,-0.0544,-0.0517,-0.0549,-0.0514,-0.0631,-0.0598,-0.0657,-0.07,-0.0707,-0.0525,-0.0528,-0.0618,-0.0646,-0.0787,-0.0785,-0.0784,-0.0782,0,-0.0629,-0.0628,-0.0627,-0.0618,-0.0586,-0.0587,-0.0572,-0.0572,-0.0561,-0.0557,-0.0529,-0.057,-0.0547,-0.0637,-0.0648,-0.0671,-0.077,-0.0825,-0.0716,-0.0706,-0.0727,-0.0711,-0.0916,-0.0916,-0.0916,-0.0916,-0.0915,0,-0.0658,-0.0655,-0.0632,-0.0621,-0.061,-0.0589,-0.0575,-0.0566,-0.0551,-0.0523,-0.053,-0.0489,-0.0573,-0.0603,-0.0675,-0.0682,-0.0791,-0.0701,-0.0714,-0.0725,-0.0708,-0.0852,-0.0843,-0.092,-0.0919,-0.0918,-0.0918,0,-0.0652,-0.065,-0.0634,-0.0616,-0.0607,-0.0586,-0.0536,-0.0515,-0.0511,-0.0472,-0.0447,-0.0451,-0.0446,-0.0505,-0.0624,-0.0666,-0.0721,-0.0701,-0.0672,-0.0673,-0.0641,-0.0631,-0.0658,-0.0652,-0.0647,-0.0643,-0.0639,0,-0.0637,-0.0631,-0.0613,-0.0592,-0.0573,-0.054,-0.0503,-0.0483,-0.045,-0.0419,-0.039,-0.0354,-0.0245,-0.0315,-0.0405,-0.0475,-0.0546,-0.0529,-0.0541,-0.0598,-0.0611,-0.0609,-0.0606,-0.0624,-0.0621,-0.0618,-0.0616,0,-0.06,-0.0602,-0.0579,-0.0542,-0.0505,-0.046,-0.041,-0.0374,-0.0339,-0.0275,-0.018,-0.0078,-0.0092,-0.0091,-0.0136,-0.0222,-0.0511,-0.0465,-0.059,-0.0614,-0.0555,-0.0569,-0.0572,-0.0591,-0.0593,-0.0595,-0.0596,-0.0597,-0.0564,-0.0539,-0.0514,-0.0471,-0.0429,-0.0367,-0.0311,-0.023,-0.0124,0.0032,0.0045,0.0218,0.0112,0.0151,0.0017,-0.0196,-0.0231,-0.0351,-0.0367,-0.0385,-0.0283,-0.0209,-0.0165,-0.0165,-0.0165,-0.0165,-0.0165,0,-0.0502,-0.0481,-0.0439,-0.038,-0.0316,-0.0318,-0.0235,-0.0131,0.0043,0.022,0.0398,0.0402,0.0431,0.0275,0.001,-0.0106,-0.0232,-0.0167,-0.0338,-0.036,-0.0379,-0.0285,-0.0165,-0.0165,-0.0165,-0.0165,0,0,-0.0464,-0.0411,-0.0389,-0.0282,-0.0241,-0.0153,-0.0099,0.0085,0.0224,0.0494,0.0612,0.0777,0.0539,0.0368,0.0156,-0.0009,-0.016,-0.0046,-0.0036,-0.0235,-0.0253,-0.0474,-0.0347,0,0,0,0,0]}],[{"header":{"parameterUnit":"m.s-1","parameterCategory":2,"la1":30.2991,"la2":30.254,"lo1":-89.0895,"lo2":-89.0444,"dy":0.0017,"dx":0.0017,"nx":28,"ny":28,"refTime":"2023-10-23T09:00:00:Z","depth":"4","parameterNumber":2,"parameterNumberName":"U-component_of_CURRENTS"},"data":[0,0,0,0,0,0,0,0,0,0,0,0,0,0,0,0,0,0,0,0,0,0,0,0,0,0,0,0,0,0,0,0,0,0,0,0,0,0,0,0,0,0,0,0,0,0,0,0,0,0,0,0,0,0,0,0,0,0,0.0092,0.0092,0,0.0174,0.0175,0.0176,0.0285,0.0286,0.0288,0.029,0.0381,0.0382,0.0383,0,0,0,0,0,0,0,0,0,0,0,0,0,0.0054,0.0054,0.0091,0.0092,0.0093,0.0174,0.0176,0.0177,0.0284,0.0286,0.0289,0.0291,0.0381,0.0382,0.0383,0,0,0,0,0,0,0,0,0,0,0,0,0,0.0097,0.0054,0.0091,0.0157,0.0163,0.0174,0.0176,0.0177,0.0284,0.0287,0.0289,0.0292,0.0381,0.0382,0.0383,0.0338,0,0,0.0387,0.0387,0,0,0,0,0,0,0,0,0.0094,0.0098,0.0146,0.0152,0.016,0.0222,0.0196,0.0231,0.0283,0.0238,0.029,0.0293,0.0326,0.0332,0.0342,0.0343,0.0346,0.0387,0.0388,0.0388,0.0388,0,0,0,0,0,0,0,0.0091,0.0095,0.0125,0.0147,0.0155,0.0191,0.02,0.0203,0.0267,0.0243,0.0251,0.0258,0.0331,0.0341,0.0345,0.0348,0.0387,0.0388,0.0389,0.0389,0.0495,0.0497,0,0,0,0,0,0,0.0076,0.0092,0.0122,0.0127,0.0132,0.019,0.02,0.0199,0.0267,0.028,0.0256,0.0263,0.0338,0.0344,0.0349,0.0472,0.0388,0.0389,0.039,0.0493,0.0495,0.0497,0,0,0,0,0,0,0.0074,0.0077,0.0119,0.0112,0.012,0.0187,0.0186,0.02,0.0269,0.0277,0.0291,0.0318,0.034,0.0347,0.0406,0.047,0.039,0.0391,0.049,0.0493,0.0496,0.0608,0,0,0,0,0,0,0.0073,0.0076,0.0084,0.011,0.012,0.0156,0.0184,0.0199,0.0266,0.0277,0.0333,0.0342,0.0343,0.0404,0.0407,0.047,0.0392,0.0488,0.0492,0.0495,0.0602,0.0615,0.0626,0,0,0,0,0,0.0071,0.007,0.0083,0.0088,0.0123,0.0157,0.0166,0.0223,0.0267,0.0296,0.0345,0.0343,0.0431,0.0406,0.0409,0.0475,0.0486,0.0491,0.0495,0.0596,0.0612,0.0625,0,0,0,0,0,0,0.0062,0.0081,0.0097,0.0104,0.0141,0.0176,0.0211,0.0249,0.0311,0.0346,0.0359,0.037,0.0444,0.0437,0.0409,0.0516,0.0461,0.0467,0.0538,0.0552,0.0564,0.0535,0.0393,0,0,0,0,0,0.0057,0.0067,0.0093,0.0106,0.0128,0.0179,0.0208,0.0254,0.0302,0.0336,0.0383,0.0427,0.0452,0.0488,0.0504,0.0557,0.0517,0.0604,0.0616,0.0626,0.0605,0.0601,0.061,0.0513,0.0513,0.0513,0,0,0.0058,0.0071,0.0078,0.0106,0.0145,0.0178,0.0206,0.0273,0.0318,0.0331,0.0432,0.0466,0.0472,0.0539,0.0573,0.0554,0.0638,0.0632,0.0641,0.0613,0.0607,0.0616,0.0624,0.0516,0.0515,0.0515,0,0,0.006,0.008,0.0092,0.0123,0.0185,0.0214,0.0245,0.0321,0.0379,0.0455,0.0484,0.0554,0.061,0.0632,0.0641,0.0721,0.0691,0.0754,0.0806,0.0806,0.0813,0.0818,0.0797,0.08,0.0773,0.0773,0.0773,0,0.0066,0.0074,0.0105,0.0131,0.0167,0.0236,0.0276,0.0324,0.0421,0.0464,0.0506,0.0608,0.0641,0.0687,0.0742,0.0748,0.0737,0.0756,0.082,0.0824,0.0828,0.0804,0.0806,0.0779,0.0778,0.0778,0.0777,0,0.0072,0.0094,0.0114,0.0161,0.0206,0.0256,0.0323,0.0395,0.0483,0.0533,0.0634,0.0685,0.0745,0.0787,0.0799,0.0861,0.084,0.0826,0.078,0.0845,0.0816,0.0816,0.0788,0.0785,0.0784,0.0782,0,0,0.0058,0.0104,0.0117,0.0147,0.0235,0.0273,0.035,0.0426,0.0492,0.0596,0.0674,0.0759,0.0818,0.0831,0.0873,0.0896,0.095,0.09,0.0898,0.0872,0.0944,0.0895,0.0889,0.0963,0.0963,0.0963,0.0917,0,0.0065,0.0099,0.013,0.0195,0.0232,0.0309,0.0374,0.0461,0.0552,0.0647,0.0708,0.0801,0.0823,0.0899,0.0921,0.0938,0.0952,0.0962,0.0888,0.0884,0.0829,0.0888,0.0964,0.0917,0.0917,0.0916,0.0916,0,0.0073,0.0095,0.0145,0.0223,0.0251,0.0307,0.0433,0.0508,0.0623,0.0696,0.078,0.084,0.0909,0.0929,0.0943,0.0957,0.0961,0.0959,0.0956,0.0861,0.0835,0.0834,0.0915,0.0915,0.0915,0.0915,0.0915,0,0.0063,0.0116,0.0156,0.0183,0.0275,0.0333,0.0415,0.054,0.0604,0.075,0.0801,0.0878,0.0936,0.094,0.0959,0.097,0.0948,0.095,0.0887,0.0882,0.0886,0.088,0.0941,0.0941,0.0941,0.0941,0.0941,0,0.0066,0.0094,0.0158,0.0183,0.0264,0.0355,0.0465,0.0553,0.0665,0.0736,0.0843,0.0885,0.095,0.0953,0.0955,0.0911,0.0936,0.0887,0.087,0.0938,0.0938,0.0886,0.0881,0.0939,0.094,0.094,0.094,0,0.005,0.0084,0.0124,0.0216,0.0263,0.0338,0.0477,0.0534,0.0659,0.0748,0.0795,0.0888,0.0913,0.0922,0.0934,0.0897,0.0869,0.0844,0.0903,0.0891,0.0802,0.0803,0.0767,0.0765,0.0764,0.0762,0.0761,0,0.0041,0.0059,0.0143,0.0181,0.0229,0.0343,0.0412,0.0539,0.0582,0.0731,0.074,0.0823,0.0876,0.0816,0.0854,0.082,0.0815,0.0787,0.0812,0.0798,0.0786,0.079,0.0793,0.0758,0.0758,0.0757,0.0757,0,0.0015,0.0043,0.0073,0.015,0.0219,0.0286,0.0389,0.0404,0.0544,0.0625,0.069,0.0743,0.0761,0.0782,0.0766,0.0744,0.0803,0.0769,0.0773,0.0796,0.0787,0.0777,0.0782,0.0751,0.0752,0.0752,0.0753,0,-0.0003,0.0003,0.0046,0.0116,0.0179,0.0226,0.0289,0.0345,0.0407,0.0553,0.0571,0.0667,0.0751,0.0741,0.072,0.0705,0.0701,0.0676,0.0685,0.0692,0.0693,0.0672,0.0582,0,0,0,0,0,-0.0012,-0.0012,0.0019,0.0082,0.0129,0.0182,0.0259,0.0309,0.0415,0.0435,0.051,0.0543,0.0594,0.0632,0.06,0.067,0.0682,0.0629,0.0652,0.0718,0.0725,0.0737,0,0,0,0,0,0,-0.0022,-0.0004,-0.0006,0.0029,0.0071,0.0125,0.0175,0.025,0.0261,0.0378,0.0392,0.0499,0.0527,0.06,0.0588,0.0597,0.0597,0.0683,0.0681,0.0714,0.072,0.0726,0.0741,0,0,0,0,0]},{"header":{"parameterUnit":"m.s-1","parameterCategory":2,"la1":30.2991,"la2":30.254,"lo1":-89.0895,"lo2":-89.0444,"dy":0.0017,"dx":0.0017,"nx":28,"ny":28,"refTime":"2023-10-23T09:00:00:Z","depth":"4","parameterNumber":3,"parameterNumberName":"V-component_of_CURRENTS"},"data":[0,0,0,0,0,0,0,0,0,0,0,0,0,0,0,0,0,0,0,0,0,0,0,0,0,0,0,0,0,0,0,0,0,0,0,0,0,0,0,0,0,0,0,0,0,0,0,0,0,0,0,0,0,0,0,0,0,0,0.0339,0.034,0,0.0333,0.0332,0.0331,0.0327,0.0327,0.0328,0.0329,0.0207,0.0203,0.0199,0,0,0,0,0,0,0,0,0,0,0,0,0,0.0266,0.0268,0.0339,0.034,0.034,0.0333,0.0332,0.0331,0.0327,0.0327,0.0328,0.0329,0.0208,0.0203,0.0199,0,0,0,0,0,0,0,0,0,0,0,0,0,0.0275,0.0268,0.0339,0.0344,0.0345,0.0333,0.0332,0.0331,0.0326,0.0328,0.0329,0.033,0.021,0.0204,0.0198,0.0139,0,0,0.018,0.0177,0,0,0,0,0,0,0,0,0.0274,0.0276,0.0342,0.0343,0.0344,0.0339,0.0262,0.0264,0.0326,0.0324,0.0329,0.033,0.0245,0.0236,0.0222,0.0133,0.0128,0.0179,0.0176,0.0173,0.0171,0,0,0,0,0,0,0,0.0274,0.0276,0.0328,0.0343,0.0344,0.0319,0.0321,0.0262,0.0269,0.0324,0.0326,0.0339,0.0244,0.0228,0.0219,0.0126,0.0179,0.0174,0.0171,0.0168,0.0001,0.0,0,0,0,0,0,0,0.0295,0.0276,0.0328,0.0328,0.0321,0.0321,0.0323,0.0333,0.0273,0.0268,0.0338,0.0339,0.0237,0.0226,0.0214,0.0152,0.0173,0.0168,0.0164,0.0002,0.0001,0.0,0,0,0,0,0,0,0.0294,0.03,0.0328,0.0309,0.0312,0.0322,0.0333,0.0332,0.0315,0.0286,0.0278,0.0323,0.0238,0.0223,0.0163,0.0147,0.0165,0.016,0.0003,0.0002,0.0001,0.0019,0,0,0,0,0,0,0.0291,0.0299,0.0309,0.0311,0.0314,0.032,0.0332,0.0332,0.0326,0.0326,0.027,0.026,0.0237,0.0172,0.0157,0.0139,0.0155,0.0004,0.0003,0.0001,0.0019,0.0018,0.0018,0,0,0,0,0,0.0289,0.0306,0.0309,0.0316,0.033,0.0321,0.0318,0.0323,0.0324,0.0311,0.0277,0.0262,0.0151,0.0166,0.0149,0.0129,0.0005,0.0003,0.0001,0.002,0.0019,0.0018,0,0,0,0,0,0,0.0282,0.0308,0.0312,0.0337,0.0328,0.0324,0.0325,0.0316,0.0278,0.0274,0.024,0.0227,0.0168,0.0142,0.0159,0.0077,0.0079,0.0073,0.0099,0.0097,0.0096,0.015,0.015,0,0,0,0,0,0.0287,0.0306,0.0311,0.0329,0.0328,0.0318,0.0316,0.0309,0.0285,0.027,0.023,0.0187,0.0144,0.0118,0.007,0.0016,0.0018,-0.0005,-0.0006,-0.0006,0.0026,0.0008,0.0009,-0.0006,-0.0006,-0.0006,0,0,0.0293,0.0309,0.0322,0.0329,0.0325,0.0331,0.0317,0.0307,0.0308,0.0258,0.0228,0.0171,0.0127,0.0076,0.0048,0.0054,-0.0006,-0.0009,-0.0009,0.0025,0.0006,0.0008,0.001,-0.0008,-0.0007,-0.0007,0,0,0.0317,0.0323,0.0346,0.0343,0.0341,0.0331,0.0327,0.0302,0.0286,0.0242,0.0212,0.0161,0.0081,0.0062,0.0041,0.0005,-0.0016,-0.0032,0.0011,-0.0009,-0.0007,-0.0005,-0.0013,-0.0012,-0.0025,-0.0025,-0.0025,0,0.0327,0.0355,0.0346,0.0365,0.0373,0.0335,0.0348,0.0326,0.028,0.0263,0.0239,0.014,0.0091,0.0061,0.0049,0.0006,-0.001,0.0019,-0.0007,-0.0005,-0.0003,-0.0012,-0.0011,-0.0025,-0.0025,-0.0025,-0.0025,0,0.0362,0.0386,0.0395,0.0413,0.0411,0.0407,0.0389,0.0359,0.0324,0.0298,0.0238,0.017,0.0126,0.0085,0.0055,0.0033,0.0014,-0.0011,0.0004,0.0,-0.0011,-0.001,-0.0024,-0.0024,-0.0024,-0.0024,0,0,0.0386,0.0416,0.0424,0.0432,0.0432,0.0426,0.0426,0.0405,0.0396,0.0333,0.0319,0.0239,0.0193,0.0169,0.011,0.009,0.007,0.0046,0.0044,0.0053,0.0028,-0.0009,-0.0012,0.0028,0.0029,0.0029,0.0012,0,0.0415,0.0457,0.0469,0.0495,0.0501,0.0482,0.049,0.0463,0.0416,0.0382,0.0323,0.0278,0.0229,0.0191,0.0165,0.0082,0.0075,0.0078,0.0019,0.0018,-0.0002,-0.0011,0.0031,0.0012,0.0012,0.0013,0.0013,0,0.0443,0.0465,0.0506,0.0522,0.0526,0.0547,0.0531,0.053,0.0488,0.0448,0.0407,0.0345,0.0305,0.0259,0.0179,0.0175,0.0121,0.0068,0.0066,0.0037,-0.0017,0.0017,0.0014,0.0014,0.0014,0.0014,0.0014,0,0.044,0.0484,0.0515,0.0524,0.0545,0.0566,0.0578,0.0553,0.0544,0.0501,0.0471,0.0413,0.0372,0.0307,0.019,0.0182,0.0096,0.0073,0.0005,0.0002,0.0035,0.0034,0.005,0.005,0.0051,0.0051,0.0051,0,0.0451,0.0472,0.0523,0.0539,0.0574,0.0587,0.0614,0.0604,0.0591,0.0574,0.0516,0.0474,0.0379,0.03,0.0214,0.0105,0.012,0.0029,-0.0002,0.0039,0.0038,0.0035,0.0034,0.005,0.005,0.005,0.005,0,0.0435,0.0471,0.05,0.055,0.0579,0.0602,0.0661,0.0657,0.0651,0.0628,0.062,0.0526,0.0419,0.0314,0.0193,0.0132,0.0034,-0.0002,0.0057,0.0027,-0.0044,-0.0044,-0.0055,-0.0056,-0.0058,-0.0059,-0.0059,0,0.0426,0.0446,0.0519,0.0556,0.0592,0.0645,0.0677,0.0689,0.0679,0.0643,0.0616,0.0526,0.0448,0.0261,0.0155,0.0017,-0.001,-0.0034,-0.0031,-0.0023,-0.0053,-0.0052,-0.0051,-0.0061,-0.0062,-0.0062,-0.0062,0,0.0406,0.0442,0.0472,0.0555,0.0606,0.0649,0.0695,0.0688,0.0682,0.0683,0.0599,0.0505,0.0379,0.0242,0.0129,0.0027,-0.0006,-0.0046,-0.0044,-0.0041,-0.0031,-0.0059,-0.0057,-0.0066,-0.0066,-0.0065,-0.0065,0,0.0397,0.0407,0.0471,0.0536,0.0607,0.0638,0.0657,0.0652,0.0647,0.061,0.0583,0.0462,0.0409,0.0245,0.0134,0.0033,0.0016,0.0005,0.0005,0.0008,0.002,0.0042,0.0017,0,0,0,0,0,0.0385,0.0404,0.0457,0.0514,0.0584,0.0627,0.0662,0.0664,0.066,0.0599,0.0596,0.0477,0.0314,0.0238,0.0129,0.0106,-0.0007,-0.0023,-0.0021,-0.0089,-0.0084,-0.0085,0,0,0,0,0,0,0.0374,0.0419,0.0437,0.0498,0.0542,0.0591,0.0612,0.0599,0.0566,0.0564,0.0468,0.0465,0.0291,0.0374,0.0131,0.0102,0.0092,-0.0088,-0.009,-0.0091,-0.0087,-0.0083,-0.0083,0,0,0,0,0]}]]